loading
DOY 198 | 2024-07-16T13:36:45Z

STARLINK-31363, 59782

Orbit data source: Space-Track

STARLINK-31363, 59782 is a payload satellite owned by SpaceX/Seattle (US) in LEO that was launched on Sat, 18 May 2024 UTC via a Falcon 9 launch vehicle from the Air Force Eastern Test Range (AFETR). Payloads include a variety of satellites, spacecraft, and rockets equipped with specific instruments for various scientific and technological missions. These include communications satellites like Starlink; space stations such as the ISS; scientific satellites like the Hubble; Earth observation satellites from companies like Planet Labs, Umbra, and HawkEye 360; GPS; miniature CubeSats for education and research; and military/defense satellites.

Loading next visibility...
Loading greatness...
STARLINK-31363 details
NORAD ID59782
COSPAR ID
2024-093A
Orbit
LEO
Last TLE update8 hours ago
Origin
Flag of USSpaceX/Seattle (US)
ManufacturerSpaceX/Seattle
BusStarlink V2M
MotorUnknown
Mass750 kg wet, ~700 kg dry
Launch date (UTC)
2024-05-18 (2 months ago)
Launch vehicle
Falcon 9
Launch site
Air Force Eastern Test Range (AFETR)
Object type
Payload
Rocket body
Debris
Radar Cross SectionLarge (>1 m²)
Predictive object data (real-time)
Latitude42.43106°
Longitude88.6825°
Altitude448.041 km
Speed7.649 km/s
Apparent Right ascension10h 34m 15s
Apparent Declination5° 02' 11"
Sunlit
Object is in daylight
Predictive observer data (real-time)
Local Sidereal Time02:15:49
Azimuth62.306° ENE
Elevation-22.184°
Doppler factor1
Orbital elements
Apogee447.039 km
Perigee444.955 km
Semi-major axis6,824.134 km
Eccentricity0.0001527
Inclination42.9997°
RAAN30.3485°
Arg. of periapsis270.321°
True anomaly89.7646°
Mean anomaly89.7471°
Mean motion3.8501 °/min
BSTAR0.0000033707
Period93.5 mins
Definitive object data (Epoch: 2024-07-16T05:29:08.321Z)
Latitude-0.00007°
Longitude13.5133°
Altitude443.81 km
Speed7.648 km/s
True Right ascension02h 01m 23s
True Declination0° 00' 00"
Sunlit
Object was in daylight at TLE epoch
TLE from 8 hours ago
0 STARLINK-31363
1 59782U 24093A   24198.22856854 -.00000163  00000-0  33707-5 0  9999
2 59782  42.9997  30.3485 0001527 270.3210  89.7471 15.40700644 10420
Epoch: 2024-07-16T05:29Z
No data available

STARLINK-31363 Visibility forecast

Observer location: 39.9160978°, -105.1181434

STARLINK-31363 is not visible in the next 10 days
Span
Click to sort rows by Start time (UTC) header in descending order
Start Az.
Max El. time (UTC)
Max El. Az.
Max El.
End time (UTC)
End Az.